| time (UTC) | temp F | wind direction | speed MPH | gust MPH | rain 1hr in | rain 24hr in | rain mn in | humidity % | barometer mb |
| 20260509170441 | 77 | 150 | 7.0 | 16.0 | 0.00 | 0.00 | 0.00 | 18 | 1005.3 |
| 20260509165411 | 77 | 209 | 9.0 | 16.0 | 0.00 | 0.00 | 0.00 | 18 | 1005.3 |
| 20260509163153 | 76 | 199 | 7.0 | 14.0 | 0.00 | 0.00 | 0.00 | 19 | 1005.3 |
| 20260509162141 | 76 | 235 | 5.0 | 12.0 | 0.00 | 0.00 | 0.00 | 19 | 1005.3 |
| 20260509161144 | 74 | 190 | 7.0 | 13.0 | 0.00 | 0.00 | 0.00 | 20 | 1005.4 |
| 20260509160157 | 74 | 209 | 7.0 | 13.0 | 0.00 | 0.00 | 0.00 | 21 | 1005.5 |
| 20260509155141 | 73 | 195 | 7.0 | 13.0 | 0.00 | 0.00 | 0.00 | 21 | 1005.5 |
| 20260509154116 | 72 | 204 | 7.0 | 13.0 | 0.00 | 0.00 | 0.00 | 22 | 1005.5 |
| 20260509153106 | 71 | 155 | 7.0 | 12.0 | 0.00 | 0.00 | 0.00 | 23 | 1005.4 |
| 20260509152126 | 70 | 203 | 7.0 | 11.0 | 0.00 | 0.00 | 0.00 | 23 | 1005.4 |
| 20260509151105 | 70 | 213 | 6.0 | 11.0 | 0.00 | 0.00 | 0.00 | 24 | 1005.5 |
| 20260509150127 | 69 | 182 | 7.0 | 12.0 | 0.00 | 0.00 | 0.00 | 25 | 1005.4 |
| 20260509145104 | 69 | 192 | 6.0 | 15.0 | 0.00 | 0.00 | 0.00 | 25 | 1005.5 |
| 20260509142949 | 69 | 193 | 6.0 | 13.0 | 0.00 | 0.00 | 0.00 | 24 | 1005.4 |
| 20260509141938 | 69 | 169 | 4.0 | 11.0 | 0.00 | 0.00 | 0.00 | 24 | 1005.3 |
| 20260509135746 | 68 | 227 | 6.0 | 11.0 | 0.00 | 0.00 | 0.00 | 25 | 1005.3 |
| 20260509133613 | 66 | 230 | 8.0 | 13.0 | 0.00 | 0.00 | 0.00 | 26 | 1005.3 |
| 20260509132638 | 65 | 219 | 7.0 | 13.0 | 0.00 | 0.00 | 0.00 | 27 | 1005.2 |
| 20260509131642 | 64 | 221 | 8.0 | 12.0 | 0.00 | 0.00 | 0.00 | 28 | 1005.1 |
| 20260509130656 | 63 | 246 | 8.0 | 12.0 | 0.00 | 0.00 | 0.00 | 29 | 1005.1 |
| 20260509125651 | 62 | 236 | 6.0 | 11.0 | 0.00 | 0.00 | 0.00 | 29 | 1005.1 |
| 20260509124705 | 62 | 197 | 6.0 | 11.0 | 0.00 | 0.00 | 0.00 | 29 | 1004.9 |
| 20260509123641 | 62 | 190 | 6.0 | 11.0 | 0.00 | 0.00 | 0.00 | 30 | 1004.8 |
| 20260509122629 | 61 | 229 | 6.0 | 11.0 | 0.00 | 0.00 | 0.00 | 29 | 1004.7 |
| 20260509121602 | 61 | 226 | 7.0 | 13.0 | 0.00 | 0.00 | 0.00 | 29 | 1004.6 |
| 20260509120620 | 61 | 215 | 7.0 | 13.0 | 0.00 | 0.00 | 0.00 | 29 | 1004.5 |
| 20260509115605 | 62 | 200 | 7.0 | 12.0 | 0.00 | 0.00 | 0.00 | 29 | 1004.3 |
| 20260509114541 | 62 | 242 | 7.0 | 12.0 | 0.00 | 0.00 | 0.00 | 29 | 1004.3 |
| 20260509113541 | 62 | 229 | 7.0 | 12.0 | 0.00 | 0.00 | 0.00 | 29 | 1004.3 |
| 20260509112528 | 62 | 218 | 6.0 | 12.0 | 0.00 | 0.00 | 0.00 | 29 | 1004.4 |
| 20260509111544 | 62 | 199 | 6.0 | 12.0 | 0.00 | 0.00 | 0.00 | 29 | 1004.3 |
| 20260509105423 | 62 | 227 | 8.0 | 13.0 | 0.00 | 0.00 | 0.00 | 28 | 1004.4 |
| 20260509104403 | 62 | 211 | 7.0 | 13.0 | 0.00 | 0.00 | 0.00 | 28 | 1004.3 |
| 20260509103405 | 63 | 241 | 8.0 | 15.0 | 0.00 | 0.00 | 0.00 | 28 | 1004.3 |
| 20260509102427 | 63 | 224 | 7.0 | 15.0 | 0.00 | 0.00 | 0.00 | 28 | 1004.3 |
| 20260509101415 | 63 | 213 | 8.0 | 14.0 | 0.00 | 0.00 | 0.00 | 28 | 1004.3 |
| 20260509100340 | 63 | 204 | 10.0 | 15.0 | 0.00 | 0.00 | 0.00 | 27 | 1004.2 |
| 20260509095356 | 64 | 196 | 9.0 | 15.0 | 0.00 | 0.00 | 0.00 | 27 | 1004.3 |
| 20260509094335 | 64 | 181 | 9.0 | 17.0 | 0.00 | 0.00 | 0.00 | 27 | 1004.2 |
| 20260509093346 | 64 | 222 | 10.0 | 17.0 | 0.00 | 0.00 | 0.00 | 27 | 1004.3 |
| 20260509092357 | 64 | 240 | 9.0 | 17.0 | 0.00 | 0.00 | 0.00 | 26 | 1004.3 |
| 20260509091355 | 64 | 214 | 9.0 | 15.0 | 0.00 | 0.00 | 0.00 | 26 | 1004.3 |
| 20260509090323 | 64 | 233 | 9.0 | 16.0 | 0.00 | 0.00 | 0.00 | 26 | 1004.4 |
| 20260509085335 | 65 | 223 | 10.0 | 16.0 | 0.00 | 0.00 | 0.00 | 26 | 1004.5 |
| 20260509083250 | 65 | 230 | 9.0 | 16.0 | 0.00 | 0.00 | 0.00 | 25 | 1004.6 |
| 20260509082227 | 65 | 217 | 9.0 | 16.0 | 0.00 | 0.00 | 0.00 | 25 | 1004.6 |
| 20260509081158 | 65 | 232 | 10.0 | 16.0 | 0.00 | 0.00 | 0.00 | 25 | 1004.7 |
| 20260509075022 | 66 | 237 | 10.0 | 15.0 | 0.00 | 0.00 | 0.00 | 24 | 1004.7 |
| 20260509074004 | 66 | 213 | 9.0 | 14.0 | 0.00 | 0.00 | 0.00 | 24 | 1004.8 |
| 20260509073025 | 66 | 245 | 9.0 | 15.0 | 0.00 | 0.00 | 0.00 | 24 | 1004.9 |
| 20260509072016 | 66 | 231 | 9.0 | 16.0 | 0.00 | 0.00 | 0.00 | 23 | 1005.0 |
| 20260509065849 | 66 | 221 | 8.0 | 13.0 | 0.00 | 0.00 | 0.00 | 23 | 1005.1 |
| 20260509064908 | 66 | 213 | 7.0 | 12.0 | 0.00 | 0.00 | 0.00 | 23 | 1005.1 |
| 20260509063931 | 66 | 217 | 6.0 | 11.0 | 0.00 | 0.00 | 0.00 | 23 | 1005.1 |
| 20260509061851 | 66 | 214 | 6.0 | 10.0 | 0.00 | 0.00 | 0.00 | 22 | 1005.2 |
| 20260509060909 | 65 | 227 | 5.0 | 11.0 | 0.00 | 0.00 | 0.00 | 23 | 1005.3 |
| 20260509055844 | 65 | 233 | 6.0 | 11.0 | 0.00 | 0.00 | 0.00 | 22 | 1005.2 |
| 20260509053711 | 66 | 233 | 6.0 | 10.0 | 0.00 | 0.00 | 0.00 | 22 | 1005.3 |
| 20260509052709 | 66 | 213 | 6.0 | 12.0 | 0.00 | 0.00 | 0.00 | 22 | 1005.4 |
| 20260509051724 | 67 | 215 | 6.0 | 12.0 | 0.00 | 0.00 | 0.00 | 21 | 1005.6 |
| 20260509050655 | 67 | 234 | 6.0 | 12.0 | 0.00 | 0.00 | 0.00 | 21 | 1005.7 |
| 20260509045656 | 67 | 218 | 5.0 | 11.0 | 0.00 | 0.00 | 0.00 | 21 | 1005.8 |
| 20260509044630 | 67 | 223 | 6.0 | 11.0 | 0.00 | 0.00 | 0.00 | 20 | 1005.8 |
| 20260509043633 | 68 | 213 | 7.0 | 14.0 | 0.00 | 0.00 | 0.00 | 20 | 1005.6 |
| 20260509041456 | 68 | 4 | 7.0 | 14.0 | 0.00 | 0.00 | 0.00 | 19 | 1005.5 |
| 20260509040455 | 69 | 211 | 9.0 | 18.0 | 0.00 | 0.00 | 0.00 | 19 | 1005.5 |
| 20260509034400 | 69 | 203 | 8.0 | 15.0 | 0.00 | 0.00 | 0.00 | 18 | 1005.2 |
| 20260509033411 | 69 | 200 | 8.0 | 15.0 | 0.00 | 0.00 | 0.00 | 18 | 1004.9 |
| 20260509032432 | 70 | 225 | 8.0 | 15.0 | 0.00 | 0.00 | 0.00 | 18 | 1004.9 |
| 20260509031430 | 70 | 195 | 8.0 | 15.0 | 0.00 | 0.00 | 0.00 | 18 | 1004.6 |
| 20260509030358 | 70 | 212 | 7.0 | 15.0 | 0.00 | 0.00 | 0.00 | 17 | 1004.5 |
| 20260509025353 | 71 | 166 | 8.0 | 15.0 | 0.00 | 0.00 | 0.00 | 17 | 1004.3 |
| 20260509024340 | 71 | 207 | 8.0 | 16.0 | 0.00 | 0.00 | 0.00 | 17 | 1004.0 |
| 20260509023338 | 71 | 192 | 7.0 | 16.0 | 0.00 | 0.00 | 0.00 | 17 | 1003.9 |
| 20260509022354 | 72 | 215 | 8.0 | 15.0 | 0.00 | 0.00 | 0.00 | 17 | 1003.7 |
| 20260509021325 | 72 | 196 | 9.0 | 17.0 | 0.00 | 0.00 | 0.00 | 16 | 1003.5 |
| 20260509020348 | 73 | 160 | 10.0 | 17.0 | 0.00 | 0.00 | 0.00 | 16 | 1003.6 |
| 20260509015320 | 74 | 156 | 9.0 | 17.0 | 0.00 | 0.00 | 0.00 | 15 | 1003.4 |
| 20260509013135 | 76 | 163 | 9.0 | 18.0 | 0.00 | 0.00 | 0.00 | 14 | 1003.3 |
| 20260509012119 | 76 | 175 | 10.0 | 18.0 | 0.00 | 0.00 | 0.00 | 14 | 1003.3 |
| 20260509004854 | 78 | 177 | 11.0 | 18.0 | 0.00 | 0.00 | 0.00 | 13 | 1003.3 |
| 20260509003901 | 79 | 202 | 9.0 | 18.0 | 0.00 | 0.00 | 0.00 | 12 | 1003.3 |
| 20260509002835 | 79 | 191 | 11.0 | 20.0 | 0.00 | 0.00 | 0.00 | 13 | 1003.2 |
| 20260509001823 | 79 | 4 | 12.0 | 20.0 | 0.00 | 0.00 | 0.00 | 13 | 1003.3 |
| 20260509000758 | 80 | 138 | 11.0 | 19.0 | 0.00 | 0.00 | 0.00 | 12 | 1003.3 |
| 20260508235752 | 80 | 194 | 11.0 | 22.0 | 0.00 | 0.00 | 0.00 | 12 | 1003.3 |
| 20260508234806 | 80 | 147 | 12.0 | 22.0 | 0.00 | 0.00 | 0.00 | 12 | 1003.4 |
| 20260508233822 | 80 | 154 | 11.0 | 21.0 | 0.00 | 0.00 | 0.00 | 12 | 1003.4 |
| 20260508232802 | 82 | 155 | 10.0 | 19.0 | 0.00 | 0.00 | 0.00 | 11 | 1003.4 |
| 20260508230642 | 81 | 211 | 8.0 | 21.0 | 0.00 | 0.00 | 0.00 | 11 | 1003.4 |
| 20260508225637 | 81 | 223 | 7.0 | 15.0 | 0.00 | 0.00 | 0.00 | 11 | 1003.7 |
| 20260508224613 | 81 | 223 | 9.0 | 17.0 | 0.00 | 0.00 | 0.00 | 11 | 1003.6 |
| 20260508222547 | 81 | 223 | 10.0 | 20.0 | 0.00 | 0.00 | 0.00 | 11 | 1003.7 |
| 20260508221549 | 82 | 165 | 10.0 | 20.0 | 0.00 | 0.00 | 0.00 | 11 | 1003.7 |
| 20260508220608 | 82 | 194 | 7.0 | 22.0 | 0.00 | 0.00 | 0.00 | 12 | 1003.8 |
| 20260508215540 | 82 | 249 | 10.0 | 22.0 | 0.00 | 0.00 | 0.00 | 12 | 1004.1 |
| 20260508214525 | 83 | 273 | 7.0 | 15.0 | 0.00 | 0.00 | 0.00 | 12 | 1004.2 |
| 20260508213501 | 81 | 221 | 8.0 | 18.0 | 0.00 | 0.00 | 0.00 | 13 | 1004.3 |
| 20260508212504 | 82 | 252 | 8.0 | 20.0 | 0.00 | 0.00 | 0.00 | 12 | 1004.4 |
| 20260508211522 | 81 | 230 | 12.0 | 20.0 | 0.00 | 0.00 | 0.00 | 13 | 1004.6 |
| 20260508210453 | 82 | 196 | 11.0 | 18.0 | 0.00 | 0.00 | 0.00 | 12 | 1004.5 |
| 20260508205447 | 81 | 222 | 11.0 | 18.0 | 0.00 | 0.00 | 0.00 | 13 | 1004.8 |
| 20260508204432 | 81 | 156 | 10.0 | 19.0 | 0.00 | 0.00 | 0.00 | 13 | 1004.9 |
| 20260508203400 | 80 | 186 | 10.0 | 19.0 | 0.00 | 0.00 | 0.00 | 13 | 1005.0 |
| 20260508202424 | 80 | 223 | 10.0 | 18.0 | 0.00 | 0.00 | 0.00 | 13 | 1005.1 |
| 20260508201416 | 81 | 269 | 12.0 | 25.0 | 0.00 | 0.00 | 0.00 | 13 | 1005.2 |
| 20260508195324 | 78 | 127 | 8.0 | 16.0 | 0.00 | 0.00 | 0.00 | 13 | 1005.4 |
| 20260508194338 | 79 | 182 | 7.0 | 16.0 | 0.00 | 0.00 | 0.00 | 14 | 1005.5 |
| 20260508193339 | 78 | 169 | 8.0 | 15.0 | 0.00 | 0.00 | 0.00 | 14 | 1005.6 |
| 20260508192338 | 79 | 252 | 7.0 | 19.0 | 0.00 | 0.00 | 0.00 | 13 | 1005.7 |
| 20260508185114 | 78 | 167 | 7.0 | 15.0 | 0.00 | 0.00 | 0.00 | 14 | 1005.9 |
| 20260508184044 | 79 | 252 | 7.0 | 15.0 | 0.00 | 0.00 | 0.00 | 14 | 1006.2 |
| 20260508183022 | 77 | 154 | 6.0 | 12.0 | 0.00 | 0.00 | 0.00 | 15 | 1006.2 |
| 20260508182030 | 77 | 242 | 4.0 | 12.0 | 0.00 | 0.00 | 0.00 | 15 | 1006.6 |
| 20260508175900 | 77 | 302 | 9.0 | 23.0 | 0.00 | 0.00 | 0.00 | 14 | 1007.0 |
| 20260508174913 | 76 | 259 | 8.0 | 17.0 | 0.00 | 0.00 | 0.00 | 15 | 1007.0 |
| 20260508173918 | 77 | 292 | 6.0 | 17.0 | 0.00 | 0.00 | 0.00 | 15 | 1007.2 |